Glenwood, MN

8:53 PM CDT on April 30, 2017 (GMT -0500)
Glenwood Municipal

Weather History for KGHW - March, 2012

Change the Weather History Date:

Sunday, March 25, 2012

  Actual Average Record
Temperature  
Mean Temperature 40 °F -  
Max Temperature 51 °F 41 °F 66 °F (1968)
Min Temperature 30 °F 26 °F -6 °F (1952)
Degree Days  
Heating Degree Days 24    
Moisture  
Dew Point 26 °F    
Average Humidity 61    
Maximum Humidity 87    
Minimum Humidity 26    
Precipitation  
Precipitation 0.00 in - - ()
Sea Level Pressure  
Sea Level Pressure 30.19 in    
Wind  
Wind Speed 10 mph (NNE)    
Max Wind Speed 15 mph    
Max Gust Speed 18 mph    
Visibility 10 miles    
Events Thunderstorm    
Averages and records for this station are not official NWS values.
T = Trace of Precipitation, MM = Missing Value Source: NWS Daily Summary

Daily Weather History Graph

Daily Weather History Graph

Search for Another Location

Airport or City:

Trip Planner

Search our weather history database for the weather conditions in past years. The results will help you decide how hot, cold, wet, or windy it might be!

Date:

Astronomy

Mar. 25, 2012 Rise Set
Actual Time 7:13 AM CDT 7:41 PM CDT
Civil Twilight 6:44 AM CDT 8:10 PM CDT
Nautical Twilight 6:08 AM CDT 8:46 PM CDT
Astronomical Twilight 5:32 AM CDT 9:22 PM CDT
Moon 8:15 AM CDT (3/25) 11:10 PM CDT (3/25)
Length of Visible Light 13h 26m
Length of Day
12h 27m
Waxing Crescent, 9% of the Moon is Illuminated
Mar 25
Waxing Crescent
Mar 30
First Quarter
Apr 6
Full
Apr 13
Last Quarter
Apr 21
New

Hourly Weather History & Observations

Time (CDT) Temp. Windchill Dew Point Humidity Pressure Visibility Wind Dir Wind Speed Gust Speed Precip Events Conditions
12:14 AM 35.6 °F 28.0 °F 32.0 °F 87% 30.14 in 10.0 mi North 10.4 mph - N/A   Clear
12:34 AM 35.6 °F 28.0 °F 30.2 °F 81% 30.14 in 10.0 mi North 10.4 mph - N/A   Clear
12:54 AM 35.6 °F 27.5 °F 30.2 °F 81% 30.14 in 10.0 mi NNW 11.5 mph - N/A   Clear
1:14 AM 35.6 °F 29.9 °F 30.2 °F 81% 30.15 in 10.0 mi North 6.9 mph - N/A   Scattered Clouds
1:33 AM 35.6 °F 29.9 °F 30.2 °F 81% 30.16 in 10.0 mi NNW 6.9 mph - N/A   Mostly Cloudy
1:54 AM 35.6 °F 29.2 °F 30.2 °F 81% 30.16 in 10.0 mi North 8.1 mph - N/A   Overcast
2:14 AM 35.6 °F 30.7 °F 30.2 °F 81% 30.16 in 10.0 mi North 5.8 mph - N/A   Overcast
2:34 AM 35.6 °F 29.9 °F 30.2 °F 81% 30.15 in 10.0 mi North 6.9 mph - N/A   Overcast
2:54 AM 35.6 °F 29.2 °F 30.2 °F 81% 30.16 in 10.0 mi North 8.1 mph - N/A   Overcast
3:13 AM 35.6 °F 27.1 °F 30.2 °F 81% 30.17 in 10.0 mi NNW 12.7 mph 16.1 mph N/A   Overcast
3:34 AM 35.6 °F 27.5 °F 30.2 °F 81% 30.16 in 10.0 mi North 11.5 mph - N/A   Overcast
4:14 AM 33.8 °F 27.0 °F 30.2 °F 87% 30.16 in 10.0 mi North 8.1 mph - N/A   Overcast
4:33 AM 33.8 °F 25.3 °F 28.4 °F 81% 30.16 in 10.0 mi North 11.5 mph - N/A   Overcast
4:54 AM 30.2 °F 21.9 °F 26.6 °F 86% 30.17 in 10.0 mi North 9.2 mph - N/A   Scattered Clouds
5:14 AM 30.2 °F 23.4 °F 26.6 °F 86% 30.18 in 10.0 mi North 6.9 mph - N/A   Scattered Clouds
5:34 AM 30.2 °F 20.8 °F 26.6 °F 86% 30.18 in 10.0 mi North 11.5 mph - N/A   Mostly Cloudy
5:54 AM 30.2 °F 21.3 °F 26.6 °F 86% 30.18 in 10.0 mi North 10.4 mph - N/A   Mostly Cloudy
6:13 AM 30.2 °F 20.8 °F 26.6 °F 86% 30.18 in 10.0 mi North 11.5 mph - N/A   Overcast
6:34 AM 30.2 °F 19.8 °F 26.6 °F 86% 30.18 in 10.0 mi North 13.8 mph - N/A   Overcast
6:54 AM 30.2 °F 21.3 °F 26.6 °F 86% 30.19 in 10.0 mi North 10.4 mph - N/A   Overcast
7:14 AM 30.2 °F 21.3 °F 26.6 °F 86% 30.20 in 10.0 mi North 10.4 mph - N/A   Overcast
7:33 AM 30.2 °F 21.3 °F 26.6 °F 86% 30.21 in 10.0 mi North 10.4 mph - N/A   Overcast
7:54 AM 30.2 °F 20.2 °F 26.6 °F 86% 30.22 in 10.0 mi North 12.7 mph 16.1 mph N/A   Overcast
8:13 AM 30.2 °F 21.9 °F 26.6 °F 86% 30.22 in 10.0 mi North 9.2 mph - N/A   Overcast
8:34 AM 30.2 °F 22.6 °F 26.6 °F 86% 30.23 in 10.0 mi North 8.1 mph - N/A   Overcast
8:53 AM 30.2 °F 22.6 °F 26.6 °F 86% 30.23 in 10.0 mi North 8.1 mph - N/A   Overcast
9:14 AM 30.2 °F 22.6 °F 26.6 °F 86% 30.24 in 10.0 mi NNW 8.1 mph - N/A   Overcast
9:34 AM 33.8 °F 27.7 °F 26.6 °F 75% 30.23 in 10.0 mi North 6.9 mph - N/A   Overcast
9:54 AM 32.0 °F 24.8 °F 24.8 °F 75% 30.23 in 10.0 mi North 8.1 mph - N/A   Scattered Clouds
10:14 AM 33.8 °F 26.4 °F 26.6 °F 75% 30.23 in 10.0 mi NNE 9.2 mph - N/A   Clear
10:33 AM 35.6 °F 29.2 °F 26.6 °F 70% 30.23 in 10.0 mi NNE 8.1 mph - N/A   Clear
10:54 AM 37.4 °F 30.8 °F 26.6 °F 65% 30.23 in 10.0 mi North 9.2 mph - N/A   Clear
11:14 AM 39.2 °F 32.5 °F 26.6 °F 61% 30.22 in 10.0 mi NNE 10.4 mph - N/A   Clear
11:34 AM 39.2 °F 32.5 °F 26.6 °F 61% 30.23 in 10.0 mi NNE 10.4 mph - N/A   Clear
11:53 AM 41.0 °F 34.3 °F 26.6 °F 57% 30.22 in 10.0 mi NNE 11.5 mph - N/A   Clear
12:13 PM 42.8 °F 36.2 °F 26.6 °F 53% 30.22 in 10.0 mi NNE 12.7 mph - N/A   Clear
12:34 PM 42.8 °F 36.2 °F 26.6 °F 53% 30.22 in 10.0 mi NNE 12.7 mph - N/A   Clear
12:54 PM 44.6 °F 38.1 °F 26.6 °F 49% 30.22 in 10.0 mi NNE 13.8 mph - N/A   Clear
1:14 PM 46.4 °F 40.7 °F 26.6 °F 46% 30.21 in 10.0 mi NNE 12.7 mph - N/A   Clear
1:34 PM 46.4 °F 41.5 °F 28.4 °F 50% 30.20 in 10.0 mi NNE 10.4 mph - N/A   Clear
1:54 PM 48.2 °F - 26.6 °F 43% 30.20 in 10.0 mi NE 11.5 mph 18.4 mph N/A   Clear
2:14 PM 50.0 °F - 24.8 °F 37% 30.20 in 10.0 mi NNE 10.4 mph - N/A   Clear
2:34 PM 50.0 °F - 24.8 °F 37% 30.20 in 10.0 mi NE 10.4 mph - N/A   Clear
2:54 PM 51.8 °F - 24.8 °F 35% 30.20 in 10.0 mi NE 9.2 mph - N/A   Scattered Clouds
3:14 PM 51.8 °F - 24.8 °F 35% 30.18 in 10.0 mi NE 11.5 mph - N/A   Mostly Cloudy
3:34 PM 51.8 °F - 24.8 °F 35% 30.18 in 10.0 mi NNE 12.7 mph - N/A   Scattered Clouds
3:54 PM 51.8 °F - 21.2 °F 30% 30.19 in 10.0 mi NE 10.4 mph - N/A   Mostly Cloudy
4:14 PM 51.8 °F - 24.8 °F 35% 30.18 in 10.0 mi NE 15.0 mph - N/A   Scattered Clouds
4:34 PM 51.8 °F - 23.0 °F 33% 30.18 in 10.0 mi NE 10.4 mph - N/A   Clear
4:54 PM 51.8 °F - 21.2 °F 30% 30.17 in 10.0 mi NE 12.7 mph - N/A   Clear
5:13 PM 51.8 °F - 23.0 °F 33% 30.16 in 10.0 mi NNE 13.8 mph - N/A   Scattered Clouds
5:53 PM 51.8 °F - 17.6 °F 26% 30.16 in 10.0 mi NE 15.0 mph - N/A   Scattered Clouds
6:14 PM 51.8 °F - 19.4 °F 28% 30.18 in 10.0 mi ENE 10.4 mph - N/A   Mostly Cloudy
6:33 PM 50.0 °F - 21.2 °F 32% 30.17 in 10.0 mi ENE 11.5 mph - N/A   Overcast
6:54 PM 48.2 °F - 17.6 °F 30% 30.18 in 10.0 mi ENE 12.7 mph - N/A   Mostly Cloudy
7:14 PM 48.2 °F - 17.6 °F 30% 30.18 in 10.0 mi ENE 10.4 mph - N/A   Scattered Clouds
7:54 PM 46.4 °F 41.5 °F 17.6 °F 32% 30.18 in 10.0 mi NE 10.4 mph - N/A   Scattered Clouds
8:13 PM 44.6 °F 38.8 °F 19.4 °F 37% 30.18 in 10.0 mi NE 11.5 mph - N/A   Mostly Cloudy
8:34 PM 44.6 °F 38.4 °F 19.4 °F 37% 30.19 in 10.0 mi NE 12.7 mph - N/A Thunderstorm Thunderstorm
8:53 PM 44.6 °F 39.2 °F 19.4 °F 37% 30.20 in 10.0 mi NE 10.4 mph - N/A   Mostly Cloudy
9:14 PM 44.6 °F 39.2 °F 21.2 °F 39% 30.21 in 10.0 mi NE 10.4 mph - N/A   Overcast
9:33 PM 44.6 °F 38.8 °F 21.2 °F 39% 30.20 in 10.0 mi NE 11.5 mph - N/A   Overcast
9:54 PM 44.6 °F 39.2 °F 21.2 °F 39% 30.21 in 10.0 mi ENE 10.4 mph - N/A   Overcast
10:14 PM 44.6 °F 38.8 °F 23.0 °F 43% 30.21 in 10.0 mi ENE 11.5 mph - N/A   Overcast
10:34 PM 44.6 °F 38.4 °F 24.8 °F 46% 30.21 in 10.0 mi ENE 12.7 mph - N/A   Overcast
10:54 PM 44.6 °F 38.8 °F 24.8 °F 46% 30.21 in 10.0 mi ENE 11.5 mph - N/A   Overcast
11:13 PM 44.6 °F 38.4 °F 23.0 °F 43% 30.21 in 10.0 mi ENE 12.7 mph - N/A   Overcast
11:34 PM 44.6 °F 38.1 °F 21.2 °F 39% 30.21 in 10.0 mi ENE 13.8 mph - N/A   Overcast
11:54 PM 44.6 °F 37.8 °F 21.2 °F 39% 30.22 in 10.0 mi East 15.0 mph - N/A   Overcast